Location: *
(45.5667°S, 177.5167°W)
Time: 04:12:35
(UTC+00:00)

USA 281 - Pass Details

Date: 29 May 2022
Orbit: 1070 x 1089 km, 106.0° (Epoch: 20 June)

Event Time Altitude Azimuth Distance (km) Brightness Sun altitude
Exits shadow 05:21:08 10° 135° (SE) 2,930 4.9 -10.9°
Maximum altitude 05:26:37 28° 78° (ENE) 1,919 4.1 -11.8°
Drops below altitude 10° 05:32:03 10° 21° (NNE) 2,905 5.5 -12.7°
Sets 05:34:58 0° 9° (N) 3,851 6.2 -13.2°
